Simultaneous Nadir Overpasses (SNOs) Predictions

Prediction of SNOs between GOES-16 and METOP-B Satellite Orbit:

Table of predicted SNOs for the next 14.0 days since TLE Epoch: 8/21/2020
Index Date Time (GOES-16) GOES-16 Lat,Lon METOP-B Lat,Lon Distance(km) Time Diff (sec)
1 08/22/2020 14:34:01 -0.01, -75.20 0.06, -75.64 49.56 80
2 08/25/2020 02:32:19 0.01, -75.20 -0.02, -75.23 3.98 80
3 08/27/2020 14:27:50 -0.00, -75.23 -0.09, -74.79 49.62 80
4 08/29/2020 02:49:30 -0.01, -75.23 -0.95, -79.38 473.41 80
5 08/30/2020 02:26:10 0.00, -75.24 0.19, -74.39 96.96 80
6 08/31/2020 14:47:40 0.01, -75.28 0.84, -78.95 418.73 80
7 09/01/2020 14:24:21 -0.00, -75.29 -0.31, -73.96 152.17 80
8 09/03/2020 02:46:00 -0.01, -75.31 -0.74, -78.55 369.28 80
9 09/04/2020 02:22:41 0.00, -75.33 0.41, -73.56 202.10 80
